| time (UTC) | temp F | wind direction | speed MPH | gust MPH | rain 1hr in | rain 24hr in | rain mn in | humidity % | barometer mb |
| 20260503223516 | 58 | 289 | 3.0 | 6.0 | 0.00 | 0.00 | 0.00 | 45 | 967.4 |
| 20260503222513 | 58 | 242 | 2.0 | 4.0 | 0.00 | 0.00 | 0.00 | 46 | 967.6 |
| 20260503221510 | 58 | 210 | 4.0 | 9.0 | 0.00 | 0.00 | 0.00 | 46 | 967.6 |
| 20260503220507 | 58 | 201 | 2.0 | 4.0 | 0.00 | 0.00 | 0.00 | 46 | 967.6 |
| 20260503215504 | 58 | 212 | 4.0 | 6.0 | 0.00 | 0.00 | 0.00 | 46 | 967.6 |
| 20260503214501 | 58 | 186 | 2.0 | 5.0 | 0.00 | 0.00 | 0.00 | 44 | 967.6 |
| 20260503213458 | 58 | 252 | 1.0 | 4.0 | 0.00 | 0.00 | 0.00 | 45 | 967.6 |
| 20260503212455 | 58 | 251 | 2.0 | 4.0 | 0.00 | 0.00 | 0.00 | 45 | 967.5 |
| 20260503211452 | 58 | 290 | 3.0 | 7.0 | 0.00 | 0.00 | 0.00 | 44 | 967.5 |
| 20260503210448 | 59 | 32 | 3.0 | 7.0 | 0.00 | 0.00 | 0.00 | 45 | 967.3 |
| 20260503205445 | 59 | 246 | 3.0 | 5.0 | 0.00 | 0.00 | 0.00 | 45 | 967.5 |
| 20260503204442 | 60 | 236 | 5.0 | 10.0 | 0.00 | 0.00 | 0.00 | 44 | 967.6 |
| 20260503203439 | 60 | 206 | 3.0 | 6.0 | 0.00 | 0.00 | 0.00 | 45 | 967.6 |
| 20260503202436 | 61 | 238 | 4.0 | 9.0 | 0.00 | 0.00 | 0.00 | 44 | 967.7 |
| 20260503201433 | 60 | 269 | 2.0 | 4.0 | 0.00 | 0.00 | 0.00 | 44 | 967.8 |
| 20260503200430 | 60 | 270 | 2.0 | 4.0 | 0.00 | 0.00 | 0.00 | 44 | 968.0 |
| 20260503195427 | 59 | 189 | 3.0 | 7.0 | 0.00 | 0.00 | 0.00 | 43 | 968.1 |
| 20260503194424 | 59 | 241 | 5.0 | 8.0 | 0.00 | 0.00 | 0.00 | 43 | 968.3 |
| 20260503193420 | 59 | 268 | 3.0 | 6.0 | 0.00 | 0.00 | 0.00 | 44 | 968.3 |
| 20260503192417 | 59 | 189 | 4.0 | 8.0 | 0.00 | 0.00 | 0.00 | 43 | 968.4 |
| 20260503191414 | 60 | 19 | 3.0 | 10.0 | 0.00 | 0.00 | 0.00 | 43 | 968.6 |
| 20260503190411 | 61 | 205 | 4.0 | 9.0 | 0.00 | 0.00 | 0.00 | 42 | 968.7 |
| 20260503185408 | 60 | 266 | 3.0 | 4.0 | 0.00 | 0.00 | 0.00 | 43 | 969.0 |
| 20260503184405 | 60 | 284 | 3.0 | 6.0 | 0.00 | 0.00 | 0.00 | 45 | 968.9 |
| 20260503183401 | 60 | 224 | 4.0 | 6.0 | 0.00 | 0.00 | 0.00 | 42 | 969.0 |
| 20260503182358 | 60 | 150 | 2.0 | 5.0 | 0.00 | 0.00 | 0.00 | 44 | 968.9 |
| 20260503181355 | 60 | 254 | 3.0 | 6.0 | 0.00 | 0.00 | 0.00 | 44 | 969.2 |
| 20260503180352 | 59 | 267 | 3.0 | 4.0 | 0.00 | 0.00 | 0.00 | 44 | 969.3 |
| 20260503175349 | 58 | 197 | 3.0 | 6.0 | 0.00 | 0.00 | 0.00 | 45 | 969.4 |
| 20260503174345 | 59 | 295 | 5.0 | 7.0 | 0.00 | 0.00 | 0.00 | 44 | 969.5 |
| 20260503173342 | 59 | 243 | 3.0 | 7.0 | 0.00 | 0.00 | 0.00 | 45 | 969.6 |
| 20260503172339 | 59 | 258 | 3.0 | 5.0 | 0.00 | 0.00 | 0.00 | 44 | 969.7 |
| 20260503171336 | 59 | 276 | 5.0 | 9.0 | 0.00 | 0.00 | 0.00 | 44 | 969.8 |
| 20260503170333 | 58 | 243 | 4.0 | 8.0 | 0.00 | 0.00 | 0.00 | 43 | 969.9 |
| 20260503150255 | 53 | 288 | 3.0 | 6.0 | 0.00 | 0.00 | 0.00 | 48 | 970.8 |
| 20260503140237 | 49 | 167 | 3.0 | 6.0 | 0.00 | 0.00 | 0.00 | 51 | 971.1 |
| 20260503131221 | 46 | 252 | 1.0 | 3.0 | 0.00 | 0.00 | 0.00 | 57 | 971.5 |
| 20260503130218 | 44 | 231 | 2.0 | 7.0 | 0.00 | 0.00 | 0.00 | 59 | 971.5 |
| 20260503120159 | 37 | 215 | 1.0 | 2.0 | 0.00 | 0.00 | 0.00 | 80 | 971.3 |
| 20260503110140 | 31 | 147 | 1.0 | 2.0 | 0.00 | 0.00 | 0.00 | 94 | 970.7 |
| 20260503100122 | 30 | 162 | 1.0 | 1.0 | 0.00 | 0.00 | 0.00 | 94 | 970.3 |
| 20260503081047 | 32 | 196 | 1.0 | 2.0 | 0.00 | 0.00 | 0.00 | 93 | 970.6 |
| 20260503072032 | 32 | 173 | 1.0 | 1.0 | 0.00 | 0.00 | 0.00 | 92 | 970.7 |
| 20260503071029 | 32 | 181 | 1.0 | 1.0 | 0.00 | 0.00 | 0.00 | 91 | 970.6 |
| 20260503055004 | 32 | 174 | 0.0 | 1.0 | 0.00 | 0.00 | 0.00 | 91 | 971.1 |
| 20260503054001 | 33 | 135 | 1.0 | 1.0 | 0.00 | 0.00 | 0.00 | 90 | 971.1 |
| 20260503052958 | 33 | 173 | 1.0 | 1.0 | 0.00 | 0.00 | 0.00 | 90 | 971.1 |
| 20260503051955 | 33 | 0 | 0.0 | 0.0 | 0.00 | 0.00 | 0.00 | 89 | 971.2 |
| 20260503050951 | 33 | 241 | 1.0 | 1.0 | 0.00 | 0.00 | 0.00 | 89 | 971.2 |
| 20260503045948 | 34 | 208 | 1.0 | 1.0 | 0.00 | 0.00 | 0.00 | 88 | 971.3 |
| 20260503044945 | 34 | 211 | 0.0 | 0.0 | 0.00 | 0.00 | 0.00 | 87 | 971.4 |
| 20260503043942 | 35 | 227 | 1.0 | 1.0 | 0.00 | 0.00 | 0.00 | 86 | 971.4 |
| 20260503042939 | 35 | 246 | 0.0 | 1.0 | 0.00 | 0.00 | 0.00 | 84 | 971.4 |
| 20260503041936 | 36 | 0 | 0.0 | 0.0 | 0.00 | 0.00 | 0.00 | 83 | 971.4 |
| 20260503040933 | 37 | 157 | 0.0 | 0.0 | 0.00 | 0.00 | 0.00 | 83 | 971.4 |
| 20260503035930 | 37 | 0 | 0.0 | 0.0 | 0.00 | 0.00 | 0.00 | 82 | 971.5 |
| 20260503034927 | 38 | 210 | 0.0 | 1.0 | 0.00 | 0.00 | 0.00 | 82 | 971.5 |
| 20260503033923 | 38 | 226 | 1.0 | 1.0 | 0.00 | 0.00 | 0.00 | 81 | 971.5 |
| 20260503032920 | 38 | 192 | 0.0 | 1.0 | 0.00 | 0.00 | 0.00 | 80 | 971.5 |
| 20260503031917 | 38 | 217 | 1.0 | 1.0 | 0.00 | 0.00 | 0.00 | 79 | 971.6 |
| 20260503030914 | 38 | 217 | 0.0 | 0.0 | 0.00 | 0.00 | 0.00 | 79 | 971.6 |
| 20260503025911 | 38 | 194 | 0.0 | 1.0 | 0.00 | 0.00 | 0.00 | 78 | 971.7 |
| 20260503024908 | 38 | 0 | 0.0 | 0.0 | 0.00 | 0.00 | 0.00 | 77 | 971.7 |
| 20260503023904 | 38 | 0 | 0.0 | 0.0 | 0.00 | 0.00 | 0.00 | 79 | 971.9 |
| 20260503022901 | 38 | 168 | 0.0 | 0.0 | 0.00 | 0.00 | 0.00 | 79 | 972.0 |
| 20260503021858 | 38 | 0 | 0.0 | 0.0 | 0.00 | 0.00 | 0.00 | 80 | 971.9 |
| 20260503020855 | 38 | 0 | 0.0 | 0.0 | 0.00 | 0.00 | 0.00 | 78 | 971.9 |
| 20260503015852 | 38 | 236 | 0.0 | 0.0 | 0.00 | 0.00 | 0.00 | 77 | 971.9 |
| 20260503014849 | 38 | 219 | 0.0 | 0.0 | 0.00 | 0.00 | 0.00 | 77 | 971.9 |
| 20260503013846 | 38 | 229 | 0.0 | 1.0 | 0.00 | 0.00 | 0.00 | 75 | 971.9 |
| 20260503012843 | 39 | 0 | 0.0 | 0.0 | 0.00 | 0.00 | 0.00 | 74 | 971.9 |
| 20260503011840 | 39 | 0 | 0.0 | 0.0 | 0.00 | 0.00 | 0.00 | 73 | 971.9 |
| 20260503010837 | 39 | 227 | 0.0 | 0.0 | 0.00 | 0.00 | 0.00 | 72 | 971.9 |
| 20260503005833 | 39 | 243 | 0.0 | 1.0 | 0.00 | 0.00 | 0.00 | 72 | 971.8 |
| 20260503004830 | 39 | 255 | 0.0 | 1.0 | 0.00 | 0.00 | 0.00 | 72 | 971.8 |
| 20260503003827 | 40 | 67 | 0.0 | 0.0 | 0.00 | 0.00 | 0.00 | 70 | 971.8 |
| 20260503002824 | 40 | 276 | 0.0 | 1.0 | 0.00 | 0.00 | 0.00 | 68 | 971.8 |
| 20260503001821 | 40 | 172 | 0.0 | 1.0 | 0.00 | 0.00 | 0.00 | 68 | 971.8 |
| 20260503000818 | 40 | 261 | 1.0 | 1.0 | 0.00 | 0.00 | 0.00 | 66 | 971.8 |
| 20260502235815 | 40 | 237 | 1.0 | 1.0 | 0.00 | 0.00 | 0.00 | 65 | 971.7 |
| 20260502234811 | 41 | 268 | 2.0 | 2.0 | 0.00 | 0.00 | 0.00 | 64 | 971.7 |
| 20260502233808 | 41 | 218 | 1.0 | 1.0 | 0.00 | 0.00 | 0.00 | 66 | 971.7 |
| 20260502232805 | 41 | 296 | 3.0 | 3.0 | 0.00 | 0.00 | 0.00 | 64 | 971.7 |
| 20260502231802 | 41 | 281 | 2.0 | 3.0 | 0.00 | 0.00 | 0.00 | 65 | 971.7 |
| 20260502230759 | 41 | 258 | 1.0 | 2.0 | 0.00 | 0.00 | 0.00 | 65 | 971.7 |
| 20260502225756 | 41 | 300 | 2.0 | 4.0 | 0.00 | 0.00 | 0.00 | 64 | 971.7 |
| 20260502224753 | 41 | 259 | 2.0 | 3.0 | 0.00 | 0.00 | 0.00 | 63 | 971.7 |